KG0HG Weather Reports


Display with metric or nautical units.
time (UTC)temp
F
wind
direction
speed
MPH
gust
MPH
rain 1hr
in
rain 24hr
in
rain mn
in
humidity
%
barometer
mb
20260507020849 50 65 0.0 0.0 0.00 0.00 0.00 60 1017.8
20260507020345 50 65 0.0 0.0 0.00 0.00 0.00 59 1017.7
20260507015842 50 65 0.0 0.0 0.00 0.00 0.00 59 1017.7
20260507015341 51 64 0.0 0.0 0.00 0.00 0.00 54 1017.9
20260507014837 52 63 0.0 0.0 0.00 0.00 0.00 54 1017.8
20260507014334 52 62 0.0 0.0 0.00 0.00 0.00 50 1017.5
20260507013830 52 61 0.0 0.0 0.00 0.00 0.00 48 1017.6
20260507013327 53 50 0.0 0.0 0.00 0.00 0.00 47 1017.4
20260507012824 53 50 0.0 0.0 0.00 0.00 0.00 46 1017.4
20260507012320 54 49 0.0 0.0 0.00 0.00 0.00 46 1017.5
20260507011812 54 49 0.0 0.0 0.00 0.00 0.00 45 1017.3
20260507011309 55 50 0.0 0.0 0.00 0.00 0.00 42 1017.5
20260507010808 56 50 0.0 0.0 0.00 0.00 0.00 41 1017.4
20260507010304 57 50 0.0 0.0 0.00 0.00 0.00 38 1017.4
20260507005802 57 57 0.0 0.0 0.00 0.00 0.00 41 1017.3
20260507005258 58 36 0.0 1.0 0.00 0.00 0.00 37 1017.4
20260507004755 58 39 0.0 1.0 0.00 0.00 0.00 38 1017.3
20260507004253 59 301 5.0 7.0 0.00 0.00 0.00 34 1017.1
20260507003749 59 37 1.0 3.0 0.00 0.00 0.00 35 1017.1
20260507003244 61 36 1.0 2.0 0.00 0.00 0.00 33 1017.2
20260507002740 60 47 1.0 2.0 0.00 0.00 0.00 34 1017.1
20260507002236 60 347 2.0 5.0 0.00 0.00 0.00 33 1017.2
20260507001733 60 10 3.0 3.0 0.00 0.00 0.00 34 1016.9
20260507001231 60 346 3.0 3.0 0.00 0.00 0.00 33 1017.2
20260507000727 61 310 4.0 5.0 0.00 0.00 0.00 33 1017.3
20260507000222 60 306 2.0 5.0 0.00 0.00 0.00 33 1017.3
20260506235720 60 30 1.0 3.0 0.00 0.00 0.00 35 1017.3
20260506235215 60 25 2.0 3.0 0.00 0.00 0.00 33 1017.3
20260506234712 60 55 0.0 2.0 0.00 0.00 0.00 35 1017.2
20260506234210 60 8 1.0 5.0 0.00 0.00 0.00 34 1017.2
20260506233707 60 25 3.0 9.0 0.00 0.00 0.00 32 1017.3
20260506233203 61 292 8.0 10.0 0.00 0.00 0.00 32 1017.1
20260506232700 61 12 2.0 6.0 0.00 0.00 0.00 32 1017.0
20260506232155 61 350 2.0 3.0 0.00 0.00 0.00 33 1017.1
20260506231652 60 39 0.0 6.0 0.00 0.00 0.00 32 1017.2
20260506231151 61 59 1.0 2.0 0.00 0.00 0.00 35 1017.1
20260506230647 61 45 3.0 3.0 0.00 0.00 0.00 34 1017.0
20260506230144 61 22 2.0 5.0 0.00 0.00 0.00 34 1017.3
20260506225640 61 104 1.0 6.0 0.00 0.00 0.00 33 1017.1
20260506225138 60 28 1.0 8.0 0.00 0.00 0.00 34 1017.0
20260506224634 61 65 0.0 2.0 0.00 0.00 0.00 36 1017.1
20260506224130 60 297 2.0 7.0 0.00 0.00 0.00 34 1017.2
20260506223627 60 293 6.0 9.0 0.00 0.00 0.00 33 1017.2
20260506223123 60 34 1.0 3.0 0.00 0.00 0.00 34 1017.4
20260506222620 61 93 1.0 2.0 0.00 0.00 0.00 35 1017.3
20260506222116 61 295 3.0 5.0 0.00 0.00 0.00 34 1017.4
20260506221614 61 46 0.0 6.0 0.00 0.00 0.00 33 1017.3
20260506221112 61 46 1.0 3.0 0.00 0.00 0.00 32 1017.1
20260506220608 60 267 3.0 8.0 0.00 0.00 0.00 33 1017.4
20260506220103 60 47 0.0 2.0 0.00 0.00 0.00 34 1017.4
20260506215600 59 347 3.0 7.0 0.00 0.00 0.00 34 1017.4
20260506215056 59 210 4.0 5.0 0.00 0.00 0.00 36 1017.3
20260506214553 60 309 4.0 7.0 0.00 0.00 0.00 34 1017.6
20260506214050 60 313 7.0 13.0 0.00 0.00 0.00 34 1017.5
20260506213548 58 1 4.0 6.0 0.00 0.00 0.00 33 1017.4
20260506213045 58 356 3.0 7.0 0.00 0.00 0.00 34 1017.4
20260506212542 60 325 5.0 9.0 0.00 0.00 0.00 34 1017.5
20260506212037 59 311 4.0 10.0 0.00 0.00 0.00 33 1017.5
20260506211533 60 359 2.0 8.0 0.00 0.00 0.00 34 1017.7
20260506211030 60 350 5.0 10.0 0.00 0.00 0.00 33 1017.7
20260506210527 60 56 1.0 3.0 0.00 0.00 0.00 34 1017.8
20260506210024 60 45 1.0 2.0 0.00 0.00 0.00 35 1018.0
20260506205520 60 10 3.0 10.0 0.00 0.00 0.00 34 1018.1
20260506205016 59 307 4.0 10.0 0.00 0.00 0.00 34 1018.1
20260506204514 60 52 1.0 3.0 0.00 0.00 0.00 34 1018.2
20260506204010 60 27 2.0 3.0 0.00 0.00 0.00 34 1018.3
20260506203509 60 23 2.0 3.0 0.00 0.00 0.00 34 1018.3
20260506203004 60 357 5.0 7.0 0.00 0.00 0.00 33 1018.5
20260506202502 59 338 3.0 7.0 0.00 0.00 0.00 33 1018.3
20260506201958 58 295 2.0 7.0 0.00 0.00 0.00 33 1018.2
20260506201456 59 18 4.0 7.0 0.00 0.00 0.00 34 1018.5
20260506200947 59 5 3.0 6.0 0.00 0.00 0.00 33 1018.5
20260506200443 59 333 4.0 6.0 0.00 0.00 0.00 33 1018.7
20260506195939 58 286 6.0 13.0 0.00 0.00 0.00 33 1018.7
20260506195437 59 40 3.0 3.0 0.00 0.00 0.00 32 1018.6
20260506194933 58 36 1.0 6.0 0.00 0.00 0.00 34 1018.6
20260506194431 58 288 9.0 11.0 0.00 0.00 0.00 31 1018.8
20260506193927 59 286 2.0 6.0 0.00 0.00 0.00 33 1018.7
20260506193424 59 19 4.0 5.0 0.00 0.00 0.00 31 1018.4
20260506192921 57 339 2.0 8.0 0.00 0.00 0.00 33 1018.7
20260506192417 58 315 4.0 7.0 0.00 0.00 0.00 33 1018.9
20260506191915 57 26 1.0 8.0 0.00 0.00 0.00 32 1019.0
20260506191411 57 274 4.0 6.0 0.00 0.00 0.00 35 1018.9
20260506190908 58 350 5.0 9.0 0.00 0.00 0.00 33 1019.0
20260506190404 57 35 2.0 6.0 0.00 0.00 0.00 35 1019.0
20260506185901 57 38 2.0 5.0 0.00 0.00 0.00 33 1018.9
20260506185359 57 47 1.0 9.0 0.00 0.00 0.00 36 1019.0
20260506184856 56 298 6.0 8.0 0.00 0.00 0.00 36 1019.1
20260506184352 55 92 1.0 2.0 0.00 0.00 0.00 37 1019.0
20260506183850 55 16 2.0 3.0 0.00 0.00 0.00 35 1019.2
20260506183345 56 285 5.0 8.0 0.00 0.00 0.00 36 1019.2
20260506182842 55 320 5.0 7.0 0.00 0.00 0.00 35 1019.4
20260506182339 56 40 0.0 5.0 0.00 0.00 0.00 39 1019.3
20260506181837 55 34 0.0 1.0 0.00 0.00 0.00 39 1019.2
20260506181335 55 289 4.0 5.0 0.00 0.00 0.00 37 1019.5
20260506180832 55 300 4.0 6.0 0.00 0.00 0.00 36 1019.3
20260506180327 55 62 1.0 3.0 0.00 0.00 0.00 38 1019.4
20260506175824 55 359 2.0 6.0 0.00 0.00 0.00 39 1019.5
20260506175321 55 22 3.0 8.0 0.00 0.00 0.00 36 1019.4
20260506174818 55 316 3.0 10.0 0.00 0.00 0.00 38 1019.3
20260506174315 55 285 2.0 5.0 0.00 0.00 0.00 37 1019.5
20260506173813 55 43 1.0 5.0 0.00 0.00 0.00 39 1019.5
20260506173309 55 313 5.0 7.0 0.00 0.00 0.00 38 1019.4
20260506172807 56 306 4.0 5.0 0.00 0.00 0.00 38 1019.4
20260506172306 55 43 1.0 2.0 0.00 0.00 0.00 39 1019.4
20260506171801 55 349 3.0 8.0 0.00 0.00 0.00 37 1019.5
20260506171258 55 28 2.0 6.0 0.00 0.00 0.00 37 1019.3
20260506170755 55 299 6.0 10.0 0.00 0.00 0.00 36 1019.3
20260506170251 55 47 1.0 3.0 0.00 0.00 0.00 37 1019.3
20260506165750 54 21 2.0 3.0 0.00 0.00 0.00 37 1019.5
20260506165247 55 280 5.0 8.0 0.00 0.00 0.00 39 1019.3
20260506164744 54 23 1.0 3.0 0.00 0.00 0.00 37 1019.5
20260506164241 55 282 6.0 8.0 0.00 0.00 0.00 39 1019.5
20260506163738 55 19 2.0 6.0 0.00 0.00 0.00 40 1019.2
20260506163232 55 27 1.0 2.0 0.00 0.00 0.00 43 1019.3
20260506162729 55 41 1.0 8.0 0.00 0.00 0.00 42 1019.2
20260506162227 55 56 0.0 1.0 0.00 0.00 0.00 39 1019.3
20260506161724 54 23 1.0 7.0 0.00 0.00 0.00 41 1019.3
20260506161221 54 25 2.0 7.0 0.00 0.00 0.00 40 1019.3
20260506160718 54 4 2.0 6.0 0.00 0.00 0.00 42 1019.1
20260506160215 55 352 2.0 9.0 0.00 0.00 0.00 40 1019.1
20260506155713 55 291 3.0 9.0 0.00 0.00 0.00 39 1019.0
20260506155210 56 10 3.0 7.0 0.00 0.00 0.00 41 1019.0
20260506153318 54 314 2.0 3.0 0.00 0.00 0.00 43 1018.9
20260506152815 54 62 1.0 3.0 0.00 0.00 0.00 43 1018.8
20260506152312 54 21 3.0 6.0 0.00 0.00 0.00 41 1018.9
20260506151811 54 39 1.0 5.0 0.00 0.00 0.00 46 1018.8
20260506151307 53 51 3.0 5.0 0.00 0.00 0.00 45 1018.9
20260506150804 53 26 1.0 6.0 0.00 0.00 0.00 47 1019.0
20260506150304 53 27 1.0 2.0 0.00 0.00 0.00 47 1019.1
20260506145758 53 27 1.0 7.0 0.00 0.00 0.00 49 1018.8
20260506145254 53 7 2.0 3.0 0.00 0.00 0.00 52 1018.8
20260506144752 53 324 0.0 2.0 0.00 0.00 0.00 51 1019.0
20260506144248 53 36 1.0 6.0 0.00 0.00 0.00 53 1018.9
20260506143746 53 36 1.0 2.0 0.00 0.00 0.00 52 1018.7
20260506143243 53 58 1.0 5.0 0.00 0.00 0.00 59 1018.6
20260506142742 52 38 1.0 2.0 0.00 0.00 0.00 57 1018.7
20260506142239 52 323 2.0 5.0 0.00 0.00 0.00 57 1018.6
20260506141738 52 45 0.0 2.0 0.00 0.00 0.00 58 1018.5
20260506141235 51 9 2.0 5.0 0.00 0.00 0.00 58 1018.6
20260506140732 51 302 3.0 5.0 0.00 0.00 0.00 59 1018.6
20260506140229 51 354 3.0 3.0 0.00 0.00 0.00 62 1018.5
20260506135726 51 314 2.0 5.0 0.00 0.00 0.00 61 1018.4
20260506135222 50 39 1.0 3.0 0.00 0.00 0.00 66 1018.1
20260506134720 50 348 2.0 3.0 0.00 0.00 0.00 68 1018.1
20260506134216 50 41 0.0 2.0 0.00 0.00 0.00 68 1018.4
20260506133713 50 47 0.0 2.0 0.00 0.00 0.00 72 1018.1
20260506133209 49 39 0.0 3.0 0.00 0.00 0.00 73 1018.2
20260506132707 49 39 1.0 2.0 0.00 0.00 0.00 76 1018.0
20260506132203 48 40 0.0 2.0 0.00 0.00 0.00 78 1017.8
20260506131701 49 33 1.0 3.0 0.00 0.00 0.00 78 1018.3
20260506131157 49 315 3.0 3.0 0.00 0.00 0.00 80 1017.9
20260506130654 48 27 1.0 2.0 0.00 0.00 0.00 82 1017.8
20260506130151 47 22 1.0 2.0 0.00 0.00 0.00 85 1017.8
20260506125649 48 47 0.0 0.0 0.00 0.00 0.00 88 1017.7
20260506125147 47 27 0.0 2.0 0.00 0.00 0.00 91 1017.6
20260506124645 47 73 0.0 0.0 0.00 0.00 0.00 93 1017.7
20260506124142 47 73 0.0 0.0 0.00 0.00 0.00 94 1017.7
20260506123640 46 72 0.0 0.0 0.00 0.00 0.00 94 1017.3
20260506123138 46 72 0.0 0.0 0.00 0.00 0.00 94 1017.3
20260506122635 46 72 0.0 0.0 0.00 0.00 0.00 95 1017.0
20260506122132 46 72 0.0 0.0 0.00 0.00 0.00 95 1017.2
20260506121630 46 72 0.0 0.0 0.00 0.00 0.00 94 1016.9
20260506121126 46 72 0.0 0.0 0.00 0.00 0.00 94 1016.8
20260506120624 46 72 0.0 0.0 0.00 0.00 0.00 94 1016.5
20260506120121 46 72 0.0 0.0 0.00 0.00 0.00 94 1016.8
20260506115620 46 72 0.0 0.0 0.00 0.00 0.00 94 1016.6
20260506115118 46 72 0.0 0.0 0.00 0.00 0.00 93 1016.6
20260506114614 46 73 0.0 0.0 0.00 0.00 0.00 93 1016.5
20260506114113 46 73 0.0 0.0 0.00 0.00 0.00 92 1016.5
20260506113610 46 72 0.0 0.0 0.00 0.00 0.00 91 1016.2
20260506113107 46 65 0.0 0.0 0.00 0.00 0.00 90 1016.4
20260506112604 46 64 0.0 0.0 0.00 0.00 0.00 90 1016.2
20260506112102 46 45 0.0 0.0 0.00 0.00 0.00 89 1016.7
20260506111559 47 42 0.0 0.0 0.00 0.00 0.00 88 1016.7
20260506111056 46 318 2.0 3.0 0.00 0.00 0.00 88 1016.8
20260506110554 46 21 1.0 2.0 0.00 0.00 0.00 88 1017.2
20260506110051 46 6 0.0 3.0 0.00 0.00 0.00 89 1016.9
20260506105547 46 87 0.0 0.0 0.00 0.00 0.00 89 1016.8
20260506105044 46 36 0.0 0.0 0.00 0.00 0.00 89 1016.9
20260506104542 46 34 0.0 0.0 0.00 0.00 0.00 90 1016.9
20260506104040 46 26 0.0 1.0 0.00 0.00 0.00 90 1016.7
20260506103537 46 14 1.0 5.0 0.00 0.00 0.00 91 1016.9
20260506103033 46 24 1.0 2.0 0.00 0.00 0.00 93 1017.0
20260506102532 45 69 0.0 0.0 0.00 0.00 0.00 93 1016.6
20260506102029 46 67 0.0 0.0 0.00 0.00 0.00 94 1016.4
20260506101526 45 49 0.0 0.0 0.00 0.00 0.00 94 1016.2
20260506101022 46 49 0.0 0.0 0.00 0.00 0.00 94 1015.9
20260506100521 45 32 0.0 0.0 0.00 0.00 0.00 95 1015.7
20260506100019 45 32 0.0 2.0 0.00 0.00 0.00 95 1015.5
20260506095517 45 61 0.0 1.0 0.00 0.00 0.00 96 1015.6
20260506095013 45 61 0.0 0.0 0.00 0.00 0.00 96 1015.6
20260506094511 45 61 0.0 0.0 0.00 0.00 0.00 96 1015.5
20260506094009 45 61 0.0 0.0 0.00 0.00 0.00 95 1015.5
20260506093507 45 61 0.0 0.0 0.00 0.00 0.00 95 1015.4
20260506093004 45 61 0.0 0.0 0.00 0.00 0.00 95 1015.6
20260506092502 45 61 0.0 0.0 0.00 0.00 0.00 95 1015.6
20260506091958 45 61 0.0 0.0 0.00 0.00 0.00 95 1015.6
20260506091457 45 61 0.0 0.0 0.00 0.00 0.00 95 1015.9
20260506090953 45 61 0.0 0.0 0.00 0.00 0.00 95 1015.7
20260506090451 45 61 0.0 0.0 0.00 0.00 0.00 95 1015.8
20260506085947 45 61 0.0 0.0 0.00 0.00 0.00 95 1015.6
20260506085444 45 61 0.0 0.0 0.00 0.00 0.00 95 1015.7
20260506084941 45 61 0.0 0.0 0.00 0.00 0.00 95 1015.4
20260506084438 45 61 0.0 0.0 0.00 0.00 0.00 95 1015.7
20260506083934 45 61 0.0 0.0 0.00 0.00 0.00 95 1015.5
20260506083431 46 61 0.0 0.0 0.00 0.00 0.00 95 1015.8
20260506082928 46 61 0.0 0.0 0.00 0.00 0.00 95 1015.4
20260506082425 45 61 0.0 0.0 0.00 0.00 0.00 95 1015.4
20260506081921 45 61 0.0 0.0 0.00 0.00 0.00 94 1015.1
20260506081420 45 61 0.0 0.0 0.00 0.00 0.00 94 1014.9
20260506080916 45 61 0.0 0.0 0.00 0.00 0.00 94 1014.9
20260506080413 45 61 0.0 0.0 0.00 0.00 0.00 93 1014.8
20260506073357 45 60 0.0 0.0 0.00 0.00 0.00 92 1014.6
20260506072854 45 60 0.0 0.0 0.00 0.00 0.00 91 1014.8
20260506072351 46 60 0.0 0.0 0.00 0.00 0.00 90 1014.7
20260506071849 45 60 0.0 0.0 0.00 0.00 0.00 89 1014.7
20260506071347 45 60 0.0 0.0 0.00 0.00 0.00 88 1015.1
20260506070843 45 60 0.0 0.0 0.00 0.00 0.00 87 1015.0
20260506070341 46 60 0.0 0.0 0.00 0.00 0.00 86 1015.0
20260506062318 47 46 0.0 1.0 0.00 0.00 0.00 82 1015.8
20260506061814 47 48 0.0 2.0 0.00 0.00 0.00 82 1016.0
20260506061311 47 21 1.0 3.0 0.00 0.00 0.00 80 1015.9
20260506060809 47 334 3.0 5.0 0.00 0.00 0.00 80 1015.8
20260506060307 47 30 1.0 3.0 0.00 0.00 0.00 79 1015.7
20260506051238 48 54 0.0 1.0 0.00 0.00 0.00 78 1015.3
20260506050736 48 54 1.0 1.0 0.00 0.00 0.00 78 1015.4
20260506050233 49 56 0.0 2.0 0.00 0.00 0.00 77 1015.1
20260506044724 48 27 2.0 8.0 0.00 0.76 0.76 82 1015.0
20260506044221 48 4 6.0 10.0 0.00 0.76 0.76 94 1015.0
20260506043718 48 330 0.0 3.0 0.00 0.76 0.76 98 1015.1
20260506043216 48 300 1.0 5.0 0.00 0.76 0.76 98 1014.8
20260506042715 48 58 0.0 0.0 0.00 0.76 0.76 98 1014.6
20260506042213 48 58 0.0 0.0 0.00 0.76 0.76 98 1014.2
20260506041711 48 58 0.0 0.0 0.00 0.76 0.76 98 1014.4
20260506041208 48 58 0.0 0.0 0.00 0.76 0.76 98 1014.3
20260506040705 48 58 0.0 0.0 0.00 0.76 0.76 98 1014.6
20260506040202 48 58 0.0 0.0 0.00 0.76 0.76 98 1014.3
20260506035658 48 88 0.0 0.0 0.00 0.76 0.76 98 1014.2
20260506035155 48 84 0.0 0.0 0.00 0.76 0.76 98 1014.3
20260506034652 48 87 0.0 0.0 0.00 0.76 0.76 98 1014.2
20260506034149 49 84 0.0 0.0 0.00 0.76 0.76 98 1014.1
20260506033647 49 84 0.0 0.0 0.00 0.76 0.76 98 1014.0
20260506033143 48 84 0.0 0.0 0.00 0.76 0.76 98 1013.9
20260506032641 48 84 0.0 0.0 0.00 0.76 0.76 98 1013.8
20260506032138 48 84 0.0 0.0 0.00 0.76 0.76 98 1013.5
20260506031634 48 84 0.0 0.0 0.00 0.76 0.76 98 1013.5
20260506031131 48 84 0.0 0.0 0.00 0.76 0.76 98 1013.7
20260506030630 48 85 0.0 0.0 0.00 0.76 0.76 97 1013.5
20260506030127 48 85 0.0 0.0 0.00 0.76 0.76 97 1013.5
20260506025624 48 85 0.0 0.0 0.00 0.76 0.76 97 1013.4
20260506025119 48 85 0.0 0.0 0.00 0.76 0.76 97 1013.2
20260506024618 48 85 0.0 0.0 0.00 0.76 0.76 97 1013.1
20260506024113 48 85 0.0 0.0 0.00 0.76 0.76 97 1013.3
20260506023610 48 85 0.0 0.0 0.00 0.76 0.76 97 1012.9
20260506023107 48 85 0.0 0.0 0.00 0.76 0.76 96 1013.0
20260506022604 48 85 0.0 0.0 0.00 0.76 0.76 96 1013.0
20260506022101 48 85 0.0 0.0 0.00 0.76 0.76 96 1012.9
20260506021559 48 85 0.0 0.0 0.00 0.76 0.76 96 1012.7
20260506021050 48 85 0.0 0.0 0.00 0.76 0.76 96 1012.5